Wind_Speed
3 2 2 2 2 3 3 3 3 4 4 4 4 4 4 4 4 3 3 3 3 2 1 1 0 0 1 1 2 2 3 3 3 3 2 2 3 3 3 4 4 3 4
3 2 2 2 2 3 3 3 3 3 4 4 5 4 4 4 4 3 3 3 3 2 2 1 1 1 1 1 2 3 3 4 4 4 3 4 4 4 4 3 3 4 4
2 2 1 1 1 2 2 3 3 3 4 4 5 5 5 4 4 4 4 4 3 2 2 2 1 1 2 2 2 3 4 4 4 4 4 4 4 4 4 4 4 4 5
2 2 1 0 1 1 1 2 3 3 4 4 5 5 5 5 5 4 4 4 4 3 2 2 2 2 2 2 3 3 4 4 4 5 5 5 5 5 5 5 5 5 6
3 3 2 1 0 1 2 2 3 3 4 4 4 4 5 5 5 5 5 4 4 4 3 3 3 3 3 3 3 4 4 5 5 5 5 5 5 5 5 5 6 6 6
4 3 2 2 1 2 2 2 2 3 4 4 4 4 5 5 5 5 5 5 5 4 4 4 3 3 3 3 3 4 4 5 5 5 4 5 5 5 5 5 6 6 6
4 3 3 2 2 2 2 2 3 3 4 4 4 4 5 5 5 5 5 5 5 5 5 5 4 3 3 3 3 3 3 4 4 5 5 5 5 5 5 5 6 6 7
5 4 4 4 3 2 2 3 3 3 4 4 4 4 5 5 6 6 6 6 6 5 5 4 4 4 3 3 3 3 3 4 4 4 4 4 5 5 5 5 6 6 7
6 5 4 4 3 3 3 3 3 3 4 4 4 4 5 5 6 6 6 6 6 5 5 4 4 3 3 3 3 3 3 4 4 4 5 5 5 5 5 6 6 6 7
7 7 6 5 4 4 4 3 4 4 4 4 4 4 5 5 6 6 6 6 6 5 5 5 4 4 3 3 3 3 3 3 4 4 5 5 5 5 6 6 6 6 6
8 8 7 5 4 4 4 4 4 4 4 4 4 4 5 6 6 6 6 6 6 6 5 5 4 4 3 3 4 4 4 3 4 4 5 5 6 6 6 7 7 7 7
8 8 7 6 5 5 5 4 4 4 4 4 5 5 5 6 7 7 7 6 6 6 5 5 4 4 4 3 4 4 4 4 4 4 5 6 6 7 7 7 8 9 9
7 8 7 7 6 6 5 5 5 5 4 4 5 6 6 6 7 7 7 7 7 6 5 5 4 4 3 3 3 3 4 4 4 5 6 6 7 8 8 8 9 9 10
7 8 8 7 7 6 6 5 5 5 5 5 5 6 6 6 7 7 7 7 7 6 6 5 5 4 4 4 3 3 4 4 4 5 6 7 7 8 8 9 9 10 10
7 7 8 7 7 6 6 5 5 5 5 5 5 6 6 7 7 7 7 7 6 6 5 5 5 5 5 4 4 4 3 4 5 5 6 7 8 8 9 9 9 10 10
7 7 7 7 7 7 7 6 6 6 6 6 6 6 6 6 7 7 7 7 6 6 6 6 5 6 5 5 5 5 5 5 5 6 7 8 8 8 8 9 9 10 10
9 9 9 8 9 8 8 7 6 6 6 6 7 7 6 6 6 6 6 7 6 6 6 6 5 6 6 5 5 5 5 6 6 7 8 8 8 8 8 9 9 10 10
11 10 10 10 9 9 8 8 7 7 7 7 7 7 7 7 7 7 7 7 7 6 6 6 6 6 6 6 6 6 6 6 7 7 8 8 8 8 8 8 9 10 10
12 11 11 10 9 8 9 8 8 7 7 7 8 7 7 7 7 7 7 7 7 7 7 6 6 6 6 6 6 6 7 7 7 8 8 8 9 9 9 9 9 10 10
11 11 10 10 10 10 9 8 8 8 7 8 8 7 7 7 7 7 7 7 7 7 7 6 6 6 6 7 7 7 8 8 8 9 9 9 9 9 9 9 10 10 11
10 10 10 10 10 10 10 9 8 8 8 8 8 8 8 8 7 7 7 7 7 7 7 7 7 7 7 7 8 8 8 8 9 9 10 9 9 9 10 10 10 11 11
10 10 10 10 10 10 10 10 9 9 9 8 8 8 8 8 7 8 8 7 8 8 8 8 8 8 8 8 8 8 9 9 10 10 10 9 9 9 10 10 11 11 11
11 11 11 11 11 11 11 11 10 10 9 9 9 9 8 8 8 8 8 8 8 8 8 8 8 8 9 9 9 9 9 10 10 10 10 10 10 10 10 10 11 11 12
12 12 12 11 11 11 12 11 11 10 9 9 9 9 9 8 8 8 9 9 9 9 9 9 9 9 9 9 10 10 10 10 11 10 10 10 10 10 11 11 12 12 12
13 13 12 12 12 11 11 10 10 10 9 9 9 9 9 9 9 9 10 10 10 10 10 10 10 10 10 10 10 11 11 11 11 11 12 12 12 12 12 12 12 13 13
13 13 13 13 12 11 11 10 10 10 9 9 9 10 10 10 10 10 11 11 11 11 11 11 11 11 11 11 11 12 12 12 12 13 13 13 13 13 13 13 13 13 14
Wind_Direction
125 113 93 80 83 79 65 57 54 60 56 49 46 46 47 46 43 37 30 24 20 28 30 31 76 175 195 231 243 249 244 242 238 246 250 247 244 247 246 240 240 233 227
148 130 108 74 69 66 62 65 62 59 53 48 45 43 42 38 34 27 22 17 17 14 15 17 14 333 278 254 256 262 260 262 253 250 254 250 252 258 259 261 252 232 238
172 154 116 61 64 53 59 60 61 58 52 46 43 40 37 32 28 25 20 16 12 3 358 351 342 323 303 293 273 266 265 270 260 256 258 255 256 263 263 269 265 241 240
210 212 210 138 66 17 20 44 46 47 42 39 35 32 29 25 24 22 18 15 9 2 351 342 332 309 301 294 283 274 265 274 270 267 261 258 260 262 266 270 265 252 242
227 226 248 238 69 3 2 30 36 29 27 29 30 31 27 26 24 21 16 13 11 6 359 345 336 317 300 290 285 279 271 270 269 268 265 267 271 270 272 264 255 252 243
225 236 260 245 313 351 4 16 15 20 20 19 18 24 25 22 19 19 15 9 6 1 352 343 334 320 307 298 289 281 274 275 272 271 271 276 280 279 273 261 254 255 251
222 241 257 259 274 309 352 8 5 3 8 10 10 15 15 14 14 13 10 8 4 358 351 346 337 316 310 306 297 286 278 276 274 275 280 284 289 287 281 274 262 259 256
230 242 257 264 274 290 325 339 344 347 351 353 356 3 7 9 8 8 5 3 2 358 351 344 335 322 305 298 293 289 279 273 271 274 280 284 288 288 287 280 272 265 263
238 253 258 264 268 284 300 323 329 333 335 338 345 350 352 354 357 1 2 1 359 353 347 341 332 320 315 296 285 282 278 276 277 272 270 281 288 290 288 280 278 271 264
246 256 259 265 270 282 283 302 323 320 321 327 338 344 346 348 347 351 358 357 353 350 347 342 335 324 316 302 289 275 273 275 278 273 274 280 288 290 291 285 282 280 273
252 255 259 263 269 275 279 291 310 314 312 316 326 333 339 340 340 341 349 351 350 351 350 346 341 331 322 305 295 288 276 269 276 276 277 281 286 291 290 289 281 276 272
256 256 260 267 274 276 275 285 299 309 307 307 311 320 329 335 341 339 344 348 349 349 348 346 340 341 333 314 303 295 287 272 281 282 283 286 289 289 286 288 279 277 273
261 260 263 267 273 276 273 279 291 300 303 305 306 314 326 336 342 342 344 345 342 342 342 343 340 336 334 314 306 300 296 286 283 285 287 289 290 290 285 288 286 283 277
263 264 263 267 270 274 275 273 282 290 297 303 305 310 319 329 334 336 341 342 341 339 338 337 335 337 335 324 309 300 293 294 296 291 293 294 295 291 287 286 284 285 282
264 269 265 264 268 272 276 272 275 286 293 303 309 310 313 318 324 332 338 340 341 336 333 335 336 335 335 330 321 321 314 303 304 301 296 295 295 290 287 287 284 282 279
262 266 267 265 268 272 271 273 274 283 293 300 301 302 306 315 322 328 335 339 339 339 334 335 336 335 332 326 323 321 317 311 307 306 301 296 293 291 291 290 289 285 279
259 264 266 269 268 268 269 270 273 283 290 294 297 297 300 306 314 319 323 331 334 335 331 328 327 329 326 324 323 319 319 316 309 306 303 298 295 293 291 291 293 290 286
257 260 265 268 267 267 268 268 277 284 285 287 292 296 299 302 306 309 312 320 325 328 326 323 324 323 322 325 327 325 322 317 312 309 305 301 298 296 295 295 294 292 289
257 258 261 264 267 265 265 266 275 284 282 282 286 292 295 300 305 308 311 314 319 323 322 320 324 326 324 326 329 330 328 321 317 318 315 308 301 298 297 297 299 297 296
257 254 260 265 266 263 265 269 274 279 277 278 283 287 291 296 304 311 310 311 314 318 318 318 322 321 318 319 321 322 324 322 320 320 316 311 306 303 300 298 299 297 297
254 253 256 260 263 265 268 270 273 277 278 276 279 280 286 291 297 304 308 308 310 311 310 312 314 315 314 313 315 316 317 317 319 318 314 311 309 306 303 301 298 297 295
254 255 257 261 264 266 269 269 272 274 274 273 274 277 279 281 286 294 299 304 309 308 306 308 309 309 311 313 313 313 314 316 317 317 316 312 311 309 309 305 301 301 298
254 259 261 263 264 266 269 271 272 273 271 269 271 273 278 279 280 285 290 295 301 305 305 307 309 309 309 311 311 311 311 312 313 312 310 309 306 306 307 308 307 305 303
256 260 263 266 263 265 269 269 270 270 271 269 270 273 276 277 278 281 286 291 296 301 303 305 308 310 311 314 314 314 313 312 312 312 310 308 305 304 303 302 302 302 302
259 261 262 263 261 262 267 269 268 269 268 268 267 270 273 274 275 278 283 287 292 296 300 305 307 308 309 311 311 311 312 312 312 310 309 307 305 304 303 302 301 302 303
261 261 261 261 259 261 264 265 265 266 268 267 269 272 273 274 276 279 281 285 289 291 294 298 301 302 304 307 308 309 309 309 308 309 309 308 307 306 305 304 304 303 303
Height
5890 5890 5890 5890 5890 5890 5890 5889 5889 5888 5888 5887 5886 5886 5885 5885 5884 5884 5883 5883 5882 5882 5882 5882 5881 5881 5882 5882 5882 5882 5882 5883 5883 5884 5884 5884 5885 5885 5885 5886 5887 5887 5888
5890 5890 5890 5890 5891 5890 5890 5889 5889 5889 5888 5887 5887 5886 5886 5885 5885 5884 5883 5883 5883 5882 5882 5881 5881 5881 5882 5881 5882 5882 5882 5882 5883 5883 5884 5884 5884 5885 5885 5885 5886 5887 5887
5890 5890 5891 5891 5891 5890 5890 5890 5889 5889 5888 5888 5887 5887 5886 5886 5885 5884 5884 5883 5882 5882 5882 5881 5881 5881 5881 5881 5881 5881 5882 5882 5882 5883 5883 5883 5884 5884 5884 5885 5886 5886 5887
5890 5890 5891 5891 5891 5891 5890 5890 5890 5889 5889 5888 5888 5887 5886 5886 5885 5885 5884 5883 5883 5882 5882 5881 5881 5881 5881 5881 5881 5881 5881 5881 5882 5882 5882 5883 5883 5883 5884 5884 5885 5885 5886
5890 5890 5891 5891 5891 5891 5890 5890 5890 5889 5889 5888 5888 5887 5887 5886 5885 5885 5884 5883 5883 5882 5882 5881 5881 5881 5881 5881 5880 5880 5880 5881 5881 5881 5882 5882 5882 5883 5883 5883 5884 5885 5885
5890 5890 5890 5890 5891 5891 5890 5890 5890 5890 5889 5889 5888 5887 5887 5886 5886 5885 5884 5883 5883 5882 5882 5881 5881 5880 5880 5880 5880 5880 5880 5880 5880 5881 5881 5881 5882 5882 5882 5883 5883 5883 5884
5890 5890 5890 5890 5890 5890 5890 5890 5890 5890 5889 5889 5888 5887 5887 5886 5886 5885 5884 5883 5883 5882 5881 5881 5880 5880 5880 5879 5879 5879 5879 5879 5880 5880 5880 5881 5881 5881 5881 5882 5882 5882 5882
5890 5890 5890 5890 5890 5890 5890 5890 5890 5890 5889 5889 5888 5888 5887 5886 5886 5885 5884 5883 5882 5882 5881 5880 5880 5879 5879 5879 5879 5879 5879 5879 5879 5879 5880 5880 5880 5880 5880 5881 5881 5881 5881
5889 5889 5890 5889 5890 5890 5890 5890 5890 5889 5889 5889 5888 5888 5887 5886 5886 5885 5884 5883 5882 5881 5880 5880 5879 5878 5878 5878 5878 5878 5878 5878 5878 5879 5879 5879 5879 5879 5879 5880 5880 5880 5880
5888 5889 5889 5889 5889 5889 5890 5890 5889 5889 5889 5889 5888 5888 5887 5886 5885 5885 5884 5883 5882 5881 5880 5879 5878 5878 5877 5877 5877 5877 5877 5877 5878 5878 5878 5878 5878 5878 5878 5878 5879 5879 5878
5888 5888 5888 5888 5889 5889 5889 5889 5889 5889 5889 5888 5888 5887 5887 5886 5885 5884 5883 5882 5881 5880 5879 5878 5878 5877 5877 5876 5876 5876 5876 5876 5876 5877 5877 5877 5877 5877 5877 5877 5877 5877 5877
5887 5887 5887 5888 5888 5888 5888 5888 5888 5888 5888 5888 5887 5887 5886 5886 5885 5884 5883 5882 5881 5880 5879 5878 5877 5877 5876 5876 5876 5876 5876 5876 5876 5876 5876 5876 5876 5876 5876 5876 5876 5876 5876
5886 5886 5886 5887 5887 5887 5888 5887 5888 5888 5887 5887 5887 5886 5886 5885 5884 5883 5882 5881 5880 5879 5879 5878 5877 5877 5876 5876 5875 5875 5875 5875 5875 5875 5875 5875 5875 5875 5875 5875 5875 5874 5874
5884 5885 5885 5885 5886 5886 5887 5887 5887 5887 5887 5886 5886 5886 5885 5885 5884 5883 5882 5881 5880 5879 5878 5878 5877 5876 5876 5875 5875 5874 5874 5874 5874 5874 5874 5874 5873 5873 5873 5873 5873 5872 5872
5883 5883 5884 5884 5885 5885 5886 5886 5886 5886 5886 5886 5885 5885 5885 5884 5883 5882 5882 5881 5880 5879 5878 5877 5876 5876 5875 5875 5874 5874 5874 5873 5873 5873 5873 5872 5872 5871 5871 5871 5871 5871 5870
5882 5882 5883 5883 5884 5884 5885 5885 5885 5885 5885 5885 5884 5884 5884 5883 5882 5882 5881 5880 5879 5878 5877 5877 5876 5875 5875 5874 5874 5873 5873 5872 5872 5872 5871 5871 5871 5870 5870 5869 5869 5869 5869
5880 5881 5881 5882 5882 5883 5883 5884 5883 5883 5883 5883 5883 5883 5883 5882 5881 5881 5880 5879 5878 5878 5877 5876 5875 5875 5874 5874 5873 5872 5872 5871 5871 5871 5870 5870 5869 5869 5868 5868 5867 5867 5867
5878 5879 5880 5880 5881 5881 5882 5882 5882 5882 5882 5882 5882 5882 5881 5881 5880 5880 5879 5879 5878 5877 5876 5876 5875 5874 5874 5873 5872 5872 5871 5870 5870 5869 5869 5868 5868 5867 5867 5866 5866 5865 5865
5876 5877 5878 5879 5879 5880 5880 5880 5881 5881 5881 5881 5881 5880 5880 5880 5879 5879 5878 5878 5877 5876 5875 5875 5874 5873 5873 5872 5872 5871 5870 5870 5869 5868 5867 5867 5866 5866 5865 5865 5864 5863 5863
5874 5875 5876 5877 5878 5878 5879 5879 5879 5879 5879 5879 5879 5879 5879 5879 5878 5878 5877 5877 5876 5875 5874 5874 5873 5872 5872 5871 5871 5870 5870 5869 5868 5867 5866 5865 5865 5864 5864 5863 5862 5862 5861
5872 5873 5874 5875 5876 5876 5877 5877 5877 5877 5878 5878 5878 5878 5877 5877 5877 5877 5876 5876 5875 5874 5873 5873 5872 5871 5871 5870 5870 5869 5868 5868 5866 5865 5864 5864 5863 5862 5862 5861 5861 5860 5859
5870 5871 5872 5873 5874 5874 5875 5875 5875 5875 5876 5876 5876 5876 5876 5875 5875 5875 5875 5874 5874 5873 5872 5872 5871 5870 5870 5869 5868 5868 5867 5867 5865 5864 5863 5862 5861 5861 5860 5859 5859 5858 5857
5868 5869 5869 5870 5871 5872 5872 5873 5873 5873 5873 5874 5874 5874 5874 5873 5874 5873 5873 5873 5872 5872 5871 5870 5869 5869 5868 5867 5867 5866 5865 5865 5863 5862 5861 5860 5859 5859 5858 5857 5856 5856 5855
5865 5866 5867 5868 5868 5869 5870 5870 5870 5871 5871 5871 5872 5872 5872 5872 5872 5872 5871 5871 5871 5870 5869 5869 5868 5867 5867 5866 5865 5864 5864 5862 5862 5861 5860 5859 5858 5857 5856 5855 5854 5853 5852
5862 5863 5864 5865 5866 5867 5867 5868 5868 5868 5869 5869 5869 5869 5870 5870 5870 5870 5869 5869 5869 5868 5868 5867 5866 5866 5865 5864 5863 5862 5861 5860 5860 5859 5858 5857 5856 5855 5854 5853 5852 5850 5849
5859 5860 5861 5862 5863 5864 5865 5865 5865 5866 5866 5867 5867 5867 5867 5868 5867 5867 5867 5867 5867 5866 5866 5865 5864 5864 5863 5862 5861 5860 5859 5858 5857 5856 5855 5854 5853 5852 5851 5850 5849 5848 5846